sat.trackr.live / text

‹ back to catalog

STARLINK-34209

NORAD 64150 · 2025-112E

PAYLOAD ACTIVE UNKNOWN

§ Identity

Operator
Country
US
Launch date
2025-05-27
Launch site
AFWTR
Launch vehicle
Mass (kg)
RCS (m²)

Purposes: comms

External: N2YO · Heavens-Above · Gunter

§ Orbital elements

Epoch: 2026-05-25T03:06:06.577056Z

Period
95.64 min
Inclination
97.4514°
Eccentricity
0.0001470
Mean motion
15.05605416 rev/d
Perigee alt
548.6 km
Apogee alt
550.7 km
Semi-major
6,927.8 km
B*
-9.8828e-4
RAAN
196.5457°
Arg perigee
184.5936°
Mean anomaly
175.5277°
Rev number
5,481

§ Raw data

STARLINK-342091 64150U 25112E   26145.12924279 -.00014272  00000+0 -98828-3 0  99962 64150  97.4514 196.5457 0001470 184.5936 175.5277 15.05605416 54818

JSON: /api/v1/satellites/64150 · /tle

For live sub-satellite position, see the globe view (requires WebGL).

§ Visibility from observer

Set your observer location to see the next 7 days of passes ≥ 10°. The values pass through the URL so the page stays shareable.

No JS? Fill the form by hand. The geolocation button needs JavaScript.